,,,PA_Meas_PMT16A,,PR_Meas_QMR101_102,,RH_Meas_QMH101,,SR_Meas_QMS101,,TA_Meas_QMH101,,GenWind,,GenWind,
date,time,status,PA,status,PR,status,RH,status,SR,status,TA,status,DirAvg,status,SpdAvg,
2011-09-19, 00:00:04,VALID,1005.73,VALID,0,INVALID,163.739,VALID,0,VALID,24.2857,VALID,30,VALID,0,
2011-09-19, 00:01:04,VALID,1005.74,VALID,0,INVALID,163.739,VALID,0,VALID,24.2857,VALID,30,VALID,0,
2011-09-19, 00:02:05,VALID,1005.72,VALID,0,INVALID,163.723,VALID,0,VALID,24.2857,VALID,30,VALID,0,
2011-09-19, 00:03:05,VALID,1005.75,VALID,0,INVALID,163.762,VALID,0,VALID,24.2662,VALID,30,VALID,0,
2011-09-19, 00:04:05,VALID,1005.72,VALID,0,INVALID,163.754,VALID,0,VALID,24.2468,VALID,30,VALID,0,
2011-09-19, 00:05:05,VALID,1005.73,VALID,0,INVALID,163.746,VALID,0,VALID,24.2468,VALID,30,VALID,0,
2011-09-19, 00:06:05,VALID,1005.73,VALID,0,INVALID,163.739,VALID,0,VALID,24.2273,VALID,30,VALID,0,
2011-09-19, 00:07:05,VALID,1005.71,VALID,0,INVALID,163.708,VALID,0,VALID,24.2078,VALID,30,VALID,0,
2011-09-19, 00:08:05,VALID,1005.71,VALID,0,INVALID,163.739,VALID,0,VALID,24.1884,VALID,30,VALID,0,
2011-09-19, 00:09:05,VALID,1005.69,VALID,0,INVALID,163.746,VALID,0,VALID,24.1494,VALID,30,VALID,0,
2011-09-19, 00:10:05,VALID,1005.68,VALID,0,INVALID,163.731,VALID,0,VALID,24.13,VALID,30,VALID,0,
2011-09-19, 00:11:05,VALID,1005.7,VALID,0,INVALID,163.769,VALID,0,VALID,24.1105,VALID,30,VALID,0,
2011-09-19, 00:12:05,VALID,1005.69,VALID,0,INVALID,163.754,VALID,0,VALID,24.13,VALID,30,VALID,0,
2011-09-19, 00:13:05,VALID,1005.69,VALID,0,INVALID,163.769,VALID,0,VALID,24.1105,VALID,30,VALID,0,
2011-09-19, 00:14:05,VALID,1005.71,VALID,0,INVALID,163.769,VALID,0,VALID,24.1105,VALID,30,VALID,0,
2011-09-19, 00:15:05,VALID,1005.7,VALID,0,INVALID,163.769,VALID,0,VALID,24.1087,VALID,30,VALID,0,
2011-09-19, 00:16:05,VALID,1005.72,VALID,0,INVALID,163.762,VALID,0.100563,VALID,24.1105,VALID,30,VALID,0,
2011-09-19, 00:17:05,VALID,1005.73,VALID,0,INVALID,163.769,VALID,0.100563,VALID,24.0697,VALID,30,VALID,0,
2011-09-19, 00:18:05,VALID,1005.75,VALID,0,INVALID,163.769,VALID,0.100563,VALID,24.0716,VALID,30,VALID,0,
2011-09-19, 00:19:05,VALID,1005.75,VALID,0,INVALID,163.769,VALID,0.100563,VALID,24.0308,VALID,30,VALID,0,
2011-09-19, 00:20:05,VALID,1005.73,VALID,0,INVALID,163.777,VALID,0.100563,VALID,23.9919,VALID,18,VALID,0,
2011-09-19, 00:21:05,VALID,1005.76,VALID,0,INVALID,163.769,VALID,0,VALID,23.9724,VALID,13,VALID,0,
2011-09-19, 00:22:05,VALID,1005.75,VALID,0,INVALID,163.769,VALID,0,VALID,23.9335,VALID,12,VALID,0,
2011-09-19, 00:23:05,VALID,1005.74,VALID,0,INVALID,163.784,VALID,0,VALID,23.9335,VALID,12,VALID,0,
2011-09-19, 00:24:05,VALID,1005.76,VALID,0,INVALID,163.762,VALID,0,VALID,23.9335,VALID,12,VALID,0,
2011-09-19, 00:25:05,VALID,1005.73,VALID,0,INVALID,163.746,VALID,0,VALID,23.9353,VALID,11,VALID,0,
2011-09-19, 00:26:05,VALID,1005.71,VALID,0,INVALID,163.784,VALID,0.100563,VALID,23.9353,VALID,6,VALID,0,
2011-09-19, 00:27:05,VALID,1005.73,VALID,0,INVALID,163.777,VALID,0.100563,VALID,23.914,VALID,4,VALID,0,
2011-09-19, 00:28:05,VALID,1005.73,VALID,0,INVALID,163.769,VALID,0.100563,VALID,23.8928,VALID,2,VALID,0,
2011-09-19, 00:29:05,VALID,1005.7,VALID,0,INVALID,163.777,VALID,0,VALID,23.8733,VALID,2,VALID,0,
2011-09-19, 00:30:05,VALID,1005.7,VALID,0,INVALID,163.754,VALID,0.100563,VALID,23.914,VALID,1,VALID,0,
2011-09-19, 00:31:05,VALID,1005.71,VALID,0,INVALID,163.784,VALID,0,VALID,23.9159,VALID,360,VALID,0,
2011-09-19, 00:32:05,VALID,1005.7,VALID,0,INVALID,163.784,VALID,0,VALID,23.9353,VALID,360,VALID,0,
2011-09-19, 00:33:05,VALID,1005.71,VALID,0,INVALID,163.8,VALID,0,VALID,23.9548,VALID,360,VALID,0,
2011-09-19, 00:34:05,VALID,1005.72,VALID,0,INVALID,163.769,VALID,0,VALID,23.9742,VALID,360,VALID,0,
2011-09-19, 00:35:05,VALID,1005.68,VALID,0,INVALID,163.784,VALID,0,VALID,23.9742,VALID,360,VALID,0,
2011-09-19, 00:36:05,VALID,1005.72,VALID,0,INVALID,163.769,VALID,0,VALID,24.0132,VALID,360,VALID,0,
2011-09-19, 00:37:05,VALID,1005.71,VALID,0,INVALID,163.777,VALID,0,VALID,24.0539,VALID,360,VALID,0,
2011-09-19, 00:38:05,VALID,1005.68,VALID,0,INVALID,163.784,VALID,0,VALID,24.0929,VALID,360,VALID,0,
2011-09-19, 00:39:05,VALID,1005.7,VALID,0,INVALID,163.769,VALID,0,VALID,24.1105,VALID,360,VALID,0,
2011-09-19, 00:40:05,VALID,1005.68,VALID,0,INVALID,163.769,VALID,0,VALID,24.1513,VALID,360,VALID,0,
2011-09-19, 00:41:05,VALID,1005.7,VALID,0,INVALID,163.754,VALID,0,VALID,24.1513,VALID,360,VALID,0,
2011-09-19, 00:42:05,VALID,1005.67,VALID,0,INVALID,163.746,VALID,0,VALID,24.1494,VALID,360,VALID,0,
2011-09-19, 00:43:05,VALID,1005.69,VALID,0,INVALID,163.746,VALID,0,VALID,24.1494,VALID,360,VALID,0,
2011-09-19, 00:44:05,VALID,1005.67,VALID,0,INVALID,163.769,VALID,0,VALID,24.1707,VALID,360,VALID,0,
2011-09-19, 00:45:05,VALID,1005.66,VALID,0,INVALID,163.754,VALID,0,VALID,24.13,VALID,360,VALID,0,
2011-09-19, 00:46:05,VALID,1005.62,VALID,0,INVALID,163.762,VALID,0,VALID,24.1494,VALID,360,VALID,0,
2011-09-19, 00:47:05,VALID,1005.65,VALID,0,INVALID,163.769,VALID,0,VALID,24.1281,VALID,360,VALID,0,
2011-09-19, 00:48:05,VALID,1005.62,VALID,0,INVALID,163.762,VALID,0.100563,VALID,24.1281,VALID,360,VALID,0,
2011-09-19, 00:49:05,VALID,1005.6,VALID,0,INVALID,163.754,VALID,0.100563,VALID,24.1087,VALID,360,VALID,0,
2011-09-19, 00:50:05,VALID,1005.59,VALID,0,INVALID,163.762,VALID,0,VALID,24.1494,VALID,360,VALID,0,
2011-09-19, 00:51:05,VALID,1005.6,VALID,0,INVALID,163.769,VALID,0.100563,VALID,24.1494,VALID,360,VALID,0,
2011-09-19, 00:52:05,VALID,1005.59,VALID,0,INVALID,163.8,VALID,0.100563,VALID,24.1087,VALID,360,VALID,0,
2011-09-19, 00:53:05,VALID,1005.58,VALID,0,INVALID,163.762,VALID,0,VALID,24.1281,VALID,360,VALID,0,
2011-09-19, 00:54:05,VALID,1005.56,VALID,0,INVALID,163.754,VALID,0,VALID,24.1281,VALID,360,VALID,0,
2011-09-19, 00:55:05,VALID,1005.55,VALID,0,INVALID,163.769,VALID,0.100563,VALID,24.1476,VALID,360,VALID,0,
2011-09-19, 00:56:05,VALID,1005.54,VALID,0,INVALID,163.769,VALID,0.100563,VALID,24.1476,VALID,360,VALID,0,
2011-09-19, 00:57:05,VALID,1005.58,VALID,0,INVALID,163.754,VALID,0.100563,VALID,24.1476,VALID,360,VALID,0,
2011-09-19, 00:58:05,VALID,1005.55,VALID,0,INVALID,163.762,VALID,0.100563,VALID,24.1476,VALID,360,VALID,0,
2011-09-19, 00:59:05,VALID,1005.59,VALID,0,INVALID,163.784,VALID,0.100563,VALID,24.1476,VALID,360,VALID,0,
2011-09-19, 01:00:05,VALID,1005.57,VALID,0,INVALID,163.762,VALID,0,VALID,24.1476,VALID,360,VALID,0,
2011-09-19, 01:01:05,VALID,1005.58,VALID,0,INVALID,163.784,VALID,0,VALID,24.1494,VALID,360,VALID,0,
2011-09-19, 01:02:05,VALID,1005.56,VALID,0,INVALID,163.777,VALID,0,VALID,24.1281,VALID,360,VALID,0,
2011-09-19, 01:03:05,VALID,1005.56,VALID,0,INVALID,163.754,VALID,0,VALID,24.1494,VALID,360,VALID,0,
2011-09-19, 01:04:05,VALID,1005.58,VALID,0,INVALID,163.754,VALID,0,VALID,24.1689,VALID,360,VALID,0,
2011-09-19, 01:05:05,VALID,1005.57,VALID,0,INVALID,163.716,VALID,0,VALID,24.1689,VALID,360,VALID,0,
2011-09-19, 01:06:05,VALID,1005.56,VALID,0,INVALID,163.723,VALID,0,VALID,24.1671,VALID,360,VALID,0,
2011-09-19, 01:07:05,VALID,1005.59,VALID,0,INVALID,163.739,VALID,0,VALID,24.1476,VALID,360,VALID,0,
2011-09-19, 01:08:05,VALID,1005.57,VALID,0,INVALID,163.739,VALID,0,VALID,24.1689,VALID,360,VALID,0,
2011-09-19, 01:09:05,VALID,1005.59,VALID,0,INVALID,163.731,VALID,0.100563,VALID,24.1476,VALID,360,VALID,0,
2011-09-19, 01:10:05,VALID,1005.57,VALID,0,INVALID,163.739,VALID,0.100563,VALID,24.1494,VALID,360,VALID,0,
2011-09-19, 01:11:05,VALID,1005.56,VALID,0,INVALID,163.762,VALID,0,VALID,24.1902,VALID,360,VALID,0,
2011-09-19, 01:12:05,VALID,1005.54,VALID,0,INVALID,163.746,VALID,0,VALID,24.1476,VALID,360,VALID,0,
2011-09-19, 01:13:05,VALID,1005.53,VALID,0,INVALID,163.739,VALID,0.100563,VALID,24.1476,VALID,360,VALID,0,
2011-09-19, 01:14:05,VALID,1005.51,VALID,0,INVALID,163.723,VALID,0,VALID,24.1689,VALID,360,VALID,0,
2011-09-19, 01:15:05,VALID,1005.53,VALID,0,INVALID,163.746,VALID,0,VALID,24.1884,VALID,360,VALID,0,
2011-09-19, 01:16:05,VALID,1005.54,VALID,0,INVALID,163.731,VALID,0,VALID,24.1902,VALID,360,VALID,0,
2011-09-19, 01:17:05,VALID,1005.55,VALID,0,INVALID,163.754,VALID,0,VALID,24.1884,VALID,360,VALID,0,
2011-09-19, 01:18:05,VALID,1005.56,VALID,0,INVALID,163.723,VALID,0,VALID,24.1884,VALID,360,VALID,0,
2011-09-19, 01:19:05,VALID,1005.57,VALID,0,INVALID,163.746,VALID,0,VALID,24.1884,VALID,360,VALID,0,
2011-09-19, 01:20:05,VALID,1005.55,VALID,0,INVALID,163.731,VALID,0,VALID,24.1884,VALID,360,VALID,0,
2011-09-19, 01:21:05,VALID,1005.53,VALID,0,INVALID,163.777,VALID,0,VALID,24.1689,VALID,360,VALID,0,
2011-09-19, 01:22:05,VALID,1005.57,VALID,0,INVALID,163.731,VALID,0,VALID,24.1689,VALID,360,VALID,0,
2011-09-19, 01:23:05,VALID,1005.53,VALID,0,INVALID,163.746,VALID,0,VALID,24.1689,VALID,360,VALID,0,
2011-09-19, 01:24:05,VALID,1005.51,VALID,0,INVALID,163.754,VALID,0,VALID,24.1689,VALID,360,VALID,0,
2011-09-19, 01:25:05,VALID,1005.51,VALID,0,INVALID,163.784,VALID,0,VALID,24.1689,VALID,360,VALID,0,
2011-09-19, 01:26:05,VALID,1005.51,VALID,0,INVALID,163.746,VALID,0,VALID,24.1689,VALID,360,VALID,0,
2011-09-19, 01:27:05,VALID,1005.5,VALID,0,INVALID,163.769,VALID,0,VALID,24.1902,VALID,360,VALID,0,
2011-09-19, 01:28:05,VALID,1005.51,VALID,0,INVALID,163.754,VALID,0,VALID,24.1689,VALID,360,VALID,0,
2011-09-19, 01:29:05,VALID,1005.49,VALID,0,INVALID,163.777,VALID,0.100563,VALID,24.1689,VALID,360,VALID,0,
2011-09-19, 01:30:05,VALID,1005.49,VALID,0,INVALID,163.754,VALID,0,VALID,24.1689,VALID,360,VALID,0,
2011-09-19, 01:31:05,VALID,1005.49,VALID,0,INVALID,163.777,VALID,0,VALID,24.1494,VALID,360,VALID,0,
2011-09-19, 01:32:05,VALID,1005.5,VALID,0,INVALID,163.769,VALID,0.100563,VALID,24.1689,VALID,360,VALID,0,
2011-09-19, 01:33:05,VALID,1005.53,VALID,0,INVALID,163.762,VALID,0,VALID,24.1689,VALID,360,VALID,0,
2011-09-19, 01:34:05,VALID,1005.48,VALID,0,INVALID,163.769,VALID,0,VALID,24.1689,VALID,360,VALID,0,
2011-09-19, 01:35:05,VALID,1005.5,VALID,0,INVALID,163.754,VALID,0.100563,VALID,24.1494,VALID,360,VALID,0,
2011-09-19, 01:36:05,VALID,1005.49,VALID,0,INVALID,163.746,VALID,0,VALID,24.1494,VALID,360,VALID,0,
2011-09-19, 01:37:05,VALID,1005.47,VALID,0,INVALID,163.754,VALID,0,VALID,24.1494,VALID,360,VALID,0,
2011-09-19, 01:38:05,VALID,1005.46,VALID,0,INVALID,163.746,VALID,0.100563,VALID,24.13,VALID,360,VALID,0,
2011-09-19, 01:39:05,VALID,1005.44,VALID,0,INVALID,163.769,VALID,0,VALID,24.13,VALID,2,VALID,0,
2011-09-19, 01:40:05,VALID,1005.46,VALID,0,INVALID,163.762,VALID,0,VALID,24.1105,VALID,83,VALID,0,
2011-09-19, 01:41:05,VALID,1005.41,VALID,0,INVALID,163.762,VALID,0,VALID,24.0503,VALID,83,VALID,0,
2011-09-19, 01:42:05,VALID,1005.41,VALID,0,INVALID,163.769,VALID,0,VALID,24.0716,VALID,83,VALID,0,
2011-09-19, 01:43:05,VALID,1005.4,VALID,0,INVALID,163.762,VALID,0,VALID,24.0716,VALID,83,VALID,0,
2011-09-19, 01:44:05,VALID,1005.39,VALID,0,INVALID,163.762,VALID,0,VALID,24.0521,VALID,83,VALID,0,
2011-09-19, 01:45:05,VALID,1005.37,VALID,0,INVALID,163.769,VALID,0,VALID,24.0521,VALID,83,VALID,0,
2011-09-19, 01:46:05,VALID,1005.36,VALID,0,INVALID,163.739,VALID,0,VALID,24.0521,VALID,83,VALID,0,
2011-09-19, 01:47:05,VALID,1005.36,VALID,0,INVALID,163.754,VALID,0,VALID,24.0326,VALID,83,VALID,0,
2011-09-19, 01:48:05,VALID,1005.37,VALID,0,INVALID,163.777,VALID,0,VALID,24.0521,VALID,83,VALID,0,
2011-09-19, 01:49:05,VALID,1005.38,VALID,0,INVALID,163.762,VALID,0,VALID,24.0326,VALID,83,VALID,0,
2011-09-19, 01:50:05,VALID,1005.36,VALID,0,INVALID,163.769,VALID,0,VALID,24.0521,VALID,83,VALID,0,
2011-09-19, 01:51:05,VALID,1005.39,VALID,0,INVALID,163.739,VALID,0,VALID,24.091,VALID,77,VALID,0,
2011-09-19, 01:52:05,VALID,1005.41,VALID,0,INVALID,163.754,VALID,0,VALID,24.091,VALID,77,VALID,0,
2011-09-19, 01:53:05,VALID,1005.42,VALID,0,INVALID,163.746,VALID,0,VALID,24.1105,VALID,77,VALID,0,
2011-09-19, 01:54:05,VALID,1005.41,VALID,0,INVALID,163.762,VALID,0,VALID,24.1105,VALID,77,VALID,0,
2011-09-19, 01:55:05,VALID,1005.38,VALID,0,INVALID,163.769,VALID,0,VALID,24.13,VALID,76,VALID,0,
2011-09-19, 01:56:05,VALID,1005.35,VALID,0,INVALID,163.739,VALID,0,VALID,24.1105,VALID,26,VALID,0,
2011-09-19, 01:57:05,VALID,1005.34,VALID,0,INVALID,163.746,VALID,0,VALID,24.1105,VALID,25,VALID,0,
2011-09-19, 01:58:05,VALID,1005.33,VALID,0,INVALID,163.746,VALID,0,VALID,24.0697,VALID,25,VALID,0,
2011-09-19, 01:59:05,VALID,1005.32,VALID,0,INVALID,163.754,VALID,0,VALID,24.091,VALID,24,VALID,0,
2011-09-19, 02:00:05,VALID,1005.29,VALID,0,INVALID,163.739,VALID,0,VALID,24.091,VALID,24,VALID,0,
2011-09-19, 02:01:05,VALID,1005.3,VALID,0,INVALID,163.739,VALID,0,VALID,24.0716,VALID,24,VALID,0,
2011-09-19, 02:02:05,VALID,1005.28,VALID,0,INVALID,163.762,VALID,0,VALID,24.0521,VALID,24,VALID,0,
2011-09-19, 02:03:05,VALID,1005.27,VALID,0,INVALID,163.769,VALID,0,VALID,24.0521,VALID,24,VALID,0,
2011-09-19, 02:04:05,VALID,1005.29,VALID,0,INVALID,163.746,VALID,0,VALID,24.0734,VALID,24,VALID,0,
2011-09-19, 02:05:05,VALID,1005.28,VALID,0,INVALID,163.746,VALID,0,VALID,24.0734,VALID,24,VALID,0,
2011-09-19, 02:06:05,VALID,1005.28,VALID,0,INVALID,163.777,VALID,0,VALID,24.0326,VALID,24,VALID,0,
2011-09-19, 02:07:05,VALID,1005.27,VALID,0,INVALID,163.777,VALID,0,VALID,24.0539,VALID,6,VALID,0,
2011-09-19, 02:08:05,VALID,1005.28,VALID,0,INVALID,163.762,VALID,0,VALID,24.0521,VALID,6,VALID,0,
2011-09-19, 02:09:05,VALID,1005.29,VALID,0,INVALID,163.762,VALID,0,VALID,24.0734,VALID,6,VALID,0,
2011-09-19, 02:10:05,VALID,1005.27,VALID,0,INVALID,163.762,VALID,0,VALID,24.0716,VALID,6,VALID,0,
2011-09-19, 02:11:05,VALID,1005.25,VALID,0,INVALID,163.754,VALID,0,VALID,24.0929,VALID,6,VALID,0,
2011-09-19, 02:12:05,VALID,1005.28,VALID,0,INVALID,163.754,VALID,0,VALID,24.0929,VALID,6,VALID,0,
2011-09-19, 02:13:05,VALID,1005.26,VALID,0,INVALID,163.739,VALID,0,VALID,24.0734,VALID,6,VALID,0,
2011-09-19, 02:14:05,VALID,1005.23,VALID,0,INVALID,163.792,VALID,0,VALID,24.0929,VALID,6,VALID,0,
2011-09-19, 02:15:05,VALID,1005.2,VALID,0,INVALID,163.777,VALID,0,VALID,24.0929,VALID,6,VALID,0,
2011-09-19, 02:16:05,VALID,1005.17,VALID,0,INVALID,163.754,VALID,0,VALID,24.091,VALID,6,VALID,0,
2011-09-19, 02:17:05,VALID,1005.17,VALID,0,INVALID,163.762,VALID,0.100563,VALID,24.0892,VALID,6,VALID,0,
2011-09-19, 02:18:05,VALID,1005.12,VALID,0,INVALID,163.784,VALID,0,VALID,24.1105,VALID,6,VALID,0,
2011-09-19, 02:19:05,VALID,1005.14,VALID,0,INVALID,163.769,VALID,0.100563,VALID,24.1087,VALID,6,VALID,0,
2011-09-19, 02:20:05,VALID,1005.12,VALID,0,INVALID,163.754,VALID,0.100563,VALID,24.0892,VALID,345,VALID,0,
2011-09-19, 02:21:05,VALID,1005.11,VALID,0,INVALID,163.762,VALID,0.100563,VALID,24.1087,VALID,342,VALID,0,
2011-09-19, 02:22:05,VALID,1005.08,VALID,0,INVALID,163.777,VALID,0,VALID,24.1281,VALID,342,VALID,0,
2011-09-19, 02:23:05,VALID,1005.06,VALID,0,INVALID,163.739,VALID,0,VALID,24.1281,VALID,342,VALID,0,
2011-09-19, 02:24:05,VALID,1005.03,VALID,0,INVALID,163.739,VALID,0,VALID,24.1281,VALID,342,VALID,0,
2011-09-19, 02:25:05,VALID,1005.05,VALID,0,INVALID,163.769,VALID,0,VALID,24.1281,VALID,341,VALID,0,
2011-09-19, 02:26:05,VALID,1005.06,VALID,0,INVALID,163.739,VALID,0,VALID,24.1689,VALID,336,VALID,0,
2011-09-19, 02:27:05,VALID,1005.07,VALID,0,INVALID,163.777,VALID,0,VALID,24.1476,VALID,336,VALID,0,
2011-09-19, 02:28:05,VALID,1005.04,VALID,0,INVALID,163.739,VALID,0.100563,VALID,24.1671,VALID,336,VALID,0,
2011-09-19, 02:29:05,VALID,1005.05,VALID,0,INVALID,163.754,VALID,0,VALID,24.1884,VALID,336,VALID,0,
2011-09-19, 02:30:05,VALID,1005.04,VALID,0,INVALID,163.762,VALID,0,VALID,24.1689,VALID,293,VALID,0,
2011-09-19, 02:31:05,VALID,1004.99,VALID,0,INVALID,163.739,VALID,0,VALID,24.1671,VALID,356,VALID,0,
2011-09-19, 02:32:05,VALID,1005.01,VALID,0,INVALID,163.731,VALID,0,VALID,24.1884,VALID,350,VALID,0,
2011-09-19, 02:33:05,VALID,1004.98,VALID,0,INVALID,163.739,VALID,0,VALID,24.1865,VALID,345,VALID,0,
2011-09-19, 02:34:05,VALID,1004.99,VALID,0,INVALID,163.762,VALID,0,VALID,24.206,VALID,350,VALID,0,
2011-09-19, 02:35:05,VALID,1005,VALID,0,INVALID,163.746,VALID,0,VALID,24.2449,VALID,351,VALID,0,
2011-09-19, 02:36:05,VALID,1004.96,VALID,0,INVALID,163.762,VALID,0,VALID,24.2449,VALID,351,VALID,0,
2011-09-19, 02:37:04,VALID,1004.96,VALID,0,INVALID,163.716,VALID,0.100563,VALID,24.3052,VALID,351,VALID,0,
2011-09-19, 02:38:04,VALID,1004.95,VALID,0,INVALID,163.746,VALID,0,VALID,24.2839,VALID,1,VALID,0,
2011-09-19, 02:39:04,VALID,1004.95,VALID,0,INVALID,163.731,VALID,0.100563,VALID,24.3441,VALID,338,VALID,0,
2011-09-19, 02:40:04,VALID,1004.93,VALID,0,INVALID,163.739,VALID,0,VALID,24.3636,VALID,336,VALID,0,
2011-09-19, 02:41:04,VALID,1004.92,VALID,0,INVALID,163.739,VALID,0.100563,VALID,24.3812,VALID,341,VALID,0,
2011-09-19, 02:42:04,VALID,1004.91,VALID,0,INVALID,163.716,VALID,0.100563,VALID,24.4201,VALID,341,VALID,0,
2011-09-19, 02:43:04,VALID,1004.9,VALID,0,INVALID,163.739,VALID,0.100563,VALID,24.4396,VALID,341,VALID,0,
2011-09-19, 02:44:04,VALID,1004.89,VALID,0,INVALID,163.731,VALID,0.100563,VALID,24.459,VALID,341,VALID,0,
2011-09-19, 02:45:04,VALID,1004.86,VALID,0,INVALID,163.739,VALID,0,VALID,24.459,VALID,332,VALID,0,
2011-09-19, 02:46:04,VALID,1004.8,VALID,0,INVALID,163.739,VALID,0.100563,VALID,24.459,VALID,332,VALID,0,
2011-09-19, 02:47:04,VALID,1004.8,VALID,0,INVALID,163.731,VALID,0.100563,VALID,24.4998,VALID,351,VALID,0,
2011-09-19, 02:48:04,VALID,1004.8,VALID,0,INVALID,163.731,VALID,0.100563,VALID,24.4785,VALID,350,VALID,0,
2011-09-19, 02:49:04,VALID,1004.79,VALID,0,INVALID,163.708,VALID,0.100563,VALID,24.498,VALID,350,VALID,0,
2011-09-19, 02:50:04,VALID,1004.74,VALID,0,INVALID,163.746,VALID,0,VALID,24.4998,VALID,350,VALID,0,
2011-09-19, 02:51:04,VALID,1004.75,VALID,0,INVALID,163.708,VALID,0,VALID,24.459,VALID,350,VALID,0,
2011-09-19, 02:52:04,VALID,1004.73,VALID,0,INVALID,163.746,VALID,0.100563,VALID,24.4609,VALID,339,VALID,0,
2011-09-19, 02:53:04,VALID,1004.7,VALID,0,INVALID,163.754,VALID,0,VALID,24.4609,VALID,339,VALID,0,
2011-09-19, 02:54:04,VALID,1004.7,VALID,0,INVALID,163.731,VALID,0.100563,VALID,24.4414,VALID,339,VALID,0,
2011-09-19, 02:55:04,VALID,1004.66,VALID,0,INVALID,163.731,VALID,0,VALID,24.4201,VALID,339,VALID,0,
2011-09-19, 02:56:04,VALID,1004.61,VALID,0,INVALID,163.708,VALID,0,VALID,24.4396,VALID,339,VALID,0,
2011-09-19, 02:57:04,VALID,1004.6,VALID,0,INVALID,163.746,VALID,0,VALID,24.4998,VALID,356,VALID,0,
2011-09-19, 02:58:04,VALID,1004.58,VALID,0,INVALID,163.731,VALID,0.100563,VALID,24.5582,VALID,353,VALID,0,
2011-09-19, 02:59:04,VALID,1004.55,VALID,0,INVALID,163.716,VALID,0.100563,VALID,24.5758,VALID,2,VALID,0,
2011-09-19, 03:00:04,VALID,1004.53,VALID,0,INVALID,163.731,VALID,0.100563,VALID,24.6342,VALID,1,VALID,0,
2011-09-19, 03:01:04,VALID,1004.54,VALID,0,INVALID,163.693,VALID,0,VALID,24.6769,VALID,342,VALID,0,
2011-09-19, 03:02:04,VALID,1004.52,VALID,0,INVALID,163.731,VALID,0,VALID,24.7353,VALID,345,VALID,0,
2011-09-19, 03:03:04,VALID,1004.54,VALID,0,INVALID,163.723,VALID,0,VALID,24.7548,VALID,357,VALID,0,
2011-09-19, 03:04:04,VALID,1004.51,VALID,0,INVALID,163.678,VALID,0,VALID,24.7937,VALID,358,VALID,0,
2011-09-19, 03:05:04,VALID,1004.5,VALID,0,INVALID,163.716,VALID,0,VALID,24.7919,VALID,357,VALID,0,
2011-09-19, 03:06:04,VALID,1004.47,VALID,0,INVALID,163.701,VALID,0,VALID,24.8327,VALID,344,VALID,0,
2011-09-19, 03:07:04,VALID,1004.48,VALID,0,INVALID,163.708,VALID,0,VALID,24.8716,VALID,340,VALID,0,
2011-09-19, 03:08:04,VALID,1004.47,VALID,0,INVALID,163.678,VALID,0,VALID,24.8911,VALID,346,VALID,0,
2011-09-19, 03:09:04,VALID,1004.42,VALID,0,INVALID,163.723,VALID,0,VALID,24.9282,VALID,354,VALID,0,
2011-09-19, 03:10:04,VALID,1004.42,VALID,0,INVALID,163.67,VALID,0,VALID,24.9866,VALID,345,VALID,0,
2011-09-19, 03:11:04,VALID,1004.43,VALID,0,INVALID,163.708,VALID,0,VALID,25.045,VALID,340,VALID,0,
2011-09-19, 03:12:04,VALID,1004.42,VALID,0,INVALID,163.678,VALID,0,VALID,25.0858,VALID,352,VALID,0,
2011-09-19, 03:13:04,VALID,1004.4,VALID,0,INVALID,163.678,VALID,0,VALID,25.0858,VALID,338,VALID,0,
2011-09-19, 03:14:04,VALID,1004.39,VALID,0,INVALID,163.678,VALID,0,VALID,25.1053,VALID,347,VALID,0,
2011-09-19, 03:15:04,VALID,1004.39,VALID,0,INVALID,163.693,VALID,0,VALID,25.0858,VALID,347,VALID,0,
2011-09-19, 03:16:04,VALID,1004.35,VALID,0,INVALID,163.701,VALID,0,VALID,25.0625,VALID,347,VALID,0,
2011-09-19, 03:17:04,VALID,1004.39,VALID,0,INVALID,163.685,VALID,0.100563,VALID,25.0625,VALID,346,VALID,0,
2011-09-19, 03:18:04,VALID,1004.36,VALID,0,INVALID,163.693,VALID,0.100563,VALID,25.0431,VALID,349,VALID,0,
2011-09-19, 03:19:04,VALID,1004.33,VALID,0,INVALID,163.701,VALID,0.100563,VALID,25.045,VALID,349,VALID,0,
2011-09-19, 03:20:04,VALID,1004.32,VALID,0,INVALID,163.708,VALID,0.100563,VALID,25.0041,VALID,349,VALID,0,
2011-09-19, 03:21:04,VALID,1004.32,VALID,0,INVALID,163.685,VALID,0,VALID,25.0255,VALID,349,VALID,0,
2011-09-19, 03:22:04,VALID,1004.33,VALID,0,INVALID,163.685,VALID,0.100563,VALID,25.006,VALID,356,VALID,0,
2011-09-19, 03:23:04,VALID,1004.36,VALID,0,INVALID,163.685,VALID,0,VALID,24.9652,VALID,359,VALID,0,
2011-09-19, 03:24:04,VALID,1004.36,VALID,0,INVALID,163.685,VALID,0,VALID,24.9671,VALID,350,VALID,0,
2011-09-19, 03:25:04,VALID,1004.38,VALID,0,INVALID,163.678,VALID,0,VALID,24.9671,VALID,350,VALID,0,
2011-09-19, 03:26:04,VALID,1004.43,VALID,0,INVALID,163.685,VALID,0,VALID,24.9457,VALID,347,VALID,0,
2011-09-19, 03:27:04,VALID,1004.4,VALID,0,INVALID,163.67,VALID,0,VALID,24.9476,VALID,346,VALID,0,
2011-09-19, 03:28:04,VALID,1004.38,VALID,0,INVALID,163.662,VALID,0,VALID,24.9263,VALID,325,VALID,0,
2011-09-19, 03:29:04,VALID,1004.41,VALID,0,INVALID,163.708,VALID,0.100563,VALID,24.9068,VALID,356,VALID,0,
2011-09-19, 03:30:04,VALID,1004.4,VALID,0,INVALID,163.708,VALID,0,VALID,24.9282,VALID,346,VALID,0,
2011-09-19, 03:31:04,VALID,1004.4,VALID,0,INVALID,163.685,VALID,0,VALID,24.9068,VALID,346,VALID,0,
2011-09-19, 03:32:04,VALID,1004.42,VALID,0,INVALID,163.708,VALID,0,VALID,24.9068,VALID,346,VALID,0,
2011-09-19, 03:33:04,VALID,1004.44,VALID,0,INVALID,163.701,VALID,0.100563,VALID,24.9087,VALID,346,VALID,0,
2011-09-19, 03:34:04,VALID,1004.45,VALID,0,INVALID,163.708,VALID,0.100563,VALID,24.8892,VALID,346,VALID,0,
2011-09-19, 03:35:04,VALID,1004.45,VALID,0,INVALID,163.685,VALID,0,VALID,24.8892,VALID,346,VALID,0,
2011-09-19, 03:36:04,VALID,1004.43,VALID,0,INVALID,163.716,VALID,0.100563,VALID,24.8484,VALID,346,VALID,0,
2011-09-19, 03:37:04,VALID,1004.48,VALID,0,INVALID,163.685,VALID,0,VALID,24.8503,VALID,345,VALID,0,
2011-09-19, 03:38:04,VALID,1004.51,VALID,0,INVALID,163.716,VALID,0,VALID,24.8113,VALID,335,VALID,0,
2011-09-19, 03:39:04,VALID,1004.51,VALID,0,INVALID,163.685,VALID,0.100563,VALID,24.8132,VALID,323,VALID,0,
2011-09-19, 03:40:04,VALID,1004.51,VALID,0,INVALID,163.723,VALID,0,VALID,24.7919,VALID,293,VALID,0,
2011-09-19, 03:41:04,VALID,1004.53,VALID,0,INVALID,163.701,VALID,0,VALID,24.7919,VALID,295,VALID,0,
2011-09-19, 03:42:04,VALID,1004.52,VALID,0,INVALID,163.723,VALID,0.100563,VALID,24.7919,VALID,299,VALID,0,
2011-09-19, 03:43:04,VALID,1004.52,VALID,0,INVALID,163.716,VALID,0,VALID,24.7705,VALID,299,VALID,0,
2011-09-19, 03:44:04,VALID,1004.5,VALID,0,INVALID,163.708,VALID,0.100563,VALID,24.7705,VALID,342,VALID,0,
2011-09-19, 03:45:04,VALID,1004.47,VALID,0,INVALID,163.716,VALID,0,VALID,24.7724,VALID,346,VALID,0,
2011-09-19, 03:46:04,VALID,1004.43,VALID,0,INVALID,163.701,VALID,0,VALID,24.7353,VALID,340,VALID,0,
2011-09-19, 03:47:04,VALID,1004.43,VALID,0,INVALID,163.701,VALID,0,VALID,24.7159,VALID,340,VALID,0,
2011-09-19, 03:48:04,VALID,1004.41,VALID,0,INVALID,163.708,VALID,0,VALID,24.6964,VALID,340,VALID,0,
2011-09-19, 03:49:04,VALID,1004.4,VALID,0,INVALID,163.731,VALID,0,VALID,24.6769,VALID,342,VALID,0,
2011-09-19, 03:50:04,VALID,1004.39,VALID,0,INVALID,163.723,VALID,0,VALID,24.6574,VALID,348,VALID,0,
2011-09-19, 03:51:04,VALID,1004.4,VALID,0,INVALID,163.701,VALID,0,VALID,24.6361,VALID,347,VALID,0,
2011-09-19, 03:52:04,VALID,1004.4,VALID,0,INVALID,163.716,VALID,0,VALID,24.6769,VALID,324,VALID,0,